Regional Weather Roundup
Issued by NWS Glasgow, MT

Home | Current Version | Previous Version | Text Only | Print | Product List | Glossary On
Versions: 1 2 3 4 5 6 7 8 9 10 11 12 13 14 15 16 17 18 19 20 21 22 23 24 25 26 27 28 29 30 31 32 33 34 35 36 37 38 39 40 41 42 43 44 45 46 47 48 49 50
000
ASUS45 KGGW 160615
RWRGGW
HOURLY REGIONAL WEATHER ROUNDUP FOR NORTHEAST MONTANA
NATIONAL WEATHER SERVICE GLASGOW MONTANA
1200 AM MDT TUE JUL 16 2019

NOTE: "FAIR" INDICATES FEW OR NO CLOUDS BELOW 12,000 FEET WITH NO
SIGNIFICANT WEATHER AND/OR OBSTRUCTIONS TO VISISBILITY.

NORTHEAST MONTANA


CITY           SKY/WX    TMP DP  RH WIND       PRES   REMARKS
GLASGOW        MOCLDY    68  55  63 E9        29.93F
6HR MIN TEMP:  67; 6HR MAX TEMP:  84;

PLENTYWOOD       N/A     63  55  75 N7          N/A
WOLF POINT     MOCLDY    65  60  84 CALM      29.95S
JORDAN           N/A     69  59  70 CALM      29.96S
WINNETT          N/A     65  58  78 S3          N/A
SIDNEY         MOCLDY    64  57  78 NW5       29.95S
GLENDIVE       CLOUDY    66  57  72 NW8       29.97F
MALTA            N/A     64  57  78 E1          N/A

FORT PECK REPORTS


CITY           SKY/WX    TMP DP  RH WIND       PRES   REMARKS
FORT PECK        N/A     70  58  65 E10G18      N/A
THE PINES        N/A     68  52  56 NE2         N/A

SOUTHEAST MONTANA


CITY           SKY/WX    TMP DP  RH WIND       PRES   REMARKS
BILLINGS       CLOUDY    64  57  78 N12       30.04R
MILES CITY     LGT RAIN  69  63  81 E5        29.98R
BAKER          CLOUDY    67  54  63 CALM      30.00R
LIVINGSTON     CLOUDY    59  55  87 SW7       30.09R

CENTRAL MONTANA


CITY           SKY/WX    TMP DP  RH WIND       PRES   REMARKS
HAVRE          MOCLDY    65  50  58 E5        29.91F
LEWISTOWN      CLOUDY    59  56  89 E8        30.00F
GREAT FALLS    CLOUDY    65  52  62 S12       29.96S
CUT BANK       CLOUDY    64  45  49 N9        29.98R
HELENA         MOCLDY    61  55  81 CALM      30.02F
BUTTE          CLOUDY    57  51  80 S7        30.12F
BOZEMAN        RAIN      60  57  89 W10       30.12R FOG

WESTERN MONTANA


CITY           SKY/WX    TMP DP  RH WIND       PRES   REMARKS
MISSOULA       LGT RAIN  65  54  67 N3        30.01R
KALISPELL      NOT AVBL

NORTH DAKOTA


CITY           SKY/WX    TMP DP  RH WIND       PRES   REMARKS
WILLISTON      PTCLDY    63  60  90 CALM      29.94F
DICKINSON      CLOUDY    64  56  75 E5        29.95S
MINOT          CLEAR     66  61  84 SW8       29.91S
BISMARCK       MOCLDY    73  56  54 CALM      29.93R

SOUTHERN SASKATCHEWAN


CITY           SKY/WX    TMP DP  RH WIND       PRES   REMARKS
REGINA         CLEAR     57  54  88 VRB2      29.94R
ESTEVAN        CLEAR     61  57  88 W6        29.94S
SWIFT CURRENT  NOT AVBL




USA.gov is the U.S. government's official web portal to all federal, state and local government web resources and services.